Location: Freemans Gardens
(41.6414°N, 83.6077°W)
Time: 03:45:00
(UTC+00:00)

Feng Yun 1-1 Rocket - Pass Details

Date: 29 October 2020
Orbit: 829 x 934 km, 99.2° (Epoch: 26 November)

Event Time Altitude Azimuth Distance (km) Brightness Sun altitude
Rises 23:27:52 0° 161° (SSE) 3,555 7.3 -11.0°
Reaches altitude 10° 23:30:16 10° 160° (SSE) 2,623 6.6 -11.4°
Maximum altitude 23:36:10 81° 74° (ENE) 949 4.4 -12.5°
Drops below altitude 10° 23:42:07 10° 348° (NNW) 2,648 6.9 -13.6°
Sets 23:44:33 0° 347° (NNW) 3,591 7.6 -14.0°
